Time,TemperatureF,DewpointF,PressureIn,WindDirection,WindDirectionDegrees,WindSpeedMPH,WindSpeedGustMPH,Humidity,HourlyPrecipIn,Conditions,Clouds,dailyrainin,SoftwareType,DateUTC
2013-03-13 00:03:00,38.0,29.0,-100.00,West,265,4.0,5.0,68,0.00,,,0.69,,2013-03-13 04:03:00,
2013-03-13 00:13:00,38.0,29.0,-100.00,West,265,4.0,5.0,68,0.00,,,0.69,,2013-03-13 04:13:00,
2013-03-13 00:23:00,37.0,29.0,-100.00,West,260,2.0,3.0,71,0.00,,,0.68,,2013-03-13 04:23:00,
2013-03-13 00:32:00,37.0,29.0,-100.00,West,263,2.0,2.0,72,0.00,,,0.64,,2013-03-13 04:32:00,
2013-03-13 00:43:00,37.0,29.0,-100.00,West,263,2.0,2.0,72,0.00,,,0.64,,2013-03-13 04:43:00,
2013-03-13 00:53:00,37.0,29.0,-100.00,SSW,195,1.0,2.0,71,0.00,,,0.64,,2013-03-13 04:53:00,
2013-03-13 01:02:00,36.0,29.0,-100.00,NW,326,2.0,3.0,74,0.00,,,0.60,,2013-03-13 05:02:00,
2013-03-13 01:13:00,36.0,29.0,-100.00,NW,326,2.0,3.0,74,0.00,,,0.60,,2013-03-13 05:13:00,
2013-03-13 01:22:00,37.0,28.0,-100.00,SSE,165,2.0,3.0,70,0.00,,,0.54,,2013-03-13 05:22:00,
2013-03-13 01:32:00,37.0,28.0,-100.00,South,185,3.0,6.0,69,0.00,,,0.48,,2013-03-13 05:32:00,
2013-03-13 01:42:00,37.0,28.0,-100.00,South,185,3.0,6.0,69,0.00,,,0.48,,2013-03-13 05:42:00,
2013-03-13 01:52:00,36.0,28.0,-100.00,NE,42,2.0,3.0,70,0.00,,,0.44,,2013-03-13 05:52:00,
2013-03-13 02:02:00,36.0,27.0,-100.00,ENE,64,2.0,5.0,70,0.00,,,0.38,,2013-03-13 06:02:00,
2013-03-13 02:13:00,36.0,27.0,-100.00,ENE,64,2.0,5.0,70,0.00,,,0.38,,2013-03-13 06:13:00,
2013-03-13 02:23:00,36.0,27.0,-100.00,NE,54,4.0,6.0,68,0.00,,,0.33,,2013-03-13 06:23:00,
2013-03-13 02:32:00,36.0,26.0,-100.00,ESE,112,3.0,4.0,66,0.00,,,0.31,,2013-03-13 06:32:00,
2013-03-13 02:42:00,36.0,26.0,-100.00,ESE,112,3.0,4.0,66,0.00,,,0.31,,2013-03-13 06:42:00,
2013-03-13 02:53:00,36.0,24.0,-100.00,North,8,1.0,2.0,62,0.00,,,0.28,,2013-03-13 06:53:00,
2013-03-13 03:03:00,36.0,24.0,-100.00,North,8,1.0,2.0,62,0.00,,,0.28,,2013-03-13 07:03:00,
2013-03-13 03:12:00,36.0,24.0,-100.00,North,8,1.0,2.0,62,0.00,,,0.28,,2013-03-13 07:12:00,
2013-03-13 03:23:00,35.0,23.0,-100.00,NW,306,0.0,1.0,60,0.00,,,0.24,,2013-03-13 07:23:00,
2013-03-13 03:33:00,35.0,22.0,-100.00,NW,325,2.0,4.0,58,0.00,,,0.24,,2013-03-13 07:33:00,
2013-03-13 03:42:00,35.0,22.0,-100.00,NW,325,2.0,4.0,58,0.00,,,0.24,,2013-03-13 07:42:00,
2013-03-13 03:53:00,35.0,22.0,-100.00,NW,325,2.0,4.0,58,0.00,,,0.24,,2013-03-13 07:53:00,
2013-03-13 04:03:00,35.0,21.0,-100.00,West,263,0.0,1.0,56,0.00,,,0.20,,2013-03-13 08:03:00,
2013-03-13 04:12:00,35.0,21.0,-100.00,West,263,0.0,1.0,56,0.00,,,0.20,,2013-03-13 08:12:00,
2013-03-13 04:23:00,34.0,21.0,-100.00,NW,323,2.0,4.0,57,0.00,,,0.18,,2013-03-13 08:23:00,
2013-03-13 04:32:00,35.0,22.0,-100.00,WNW,285,2.0,3.0,59,0.00,,,0.18,,2013-03-13 08:32:00,
2013-03-13 04:43:00,35.0,22.0,-100.00,WNW,285,2.0,3.0,59,0.00,,,0.18,,2013-03-13 08:43:00,
2013-03-13 04:54:00,34.0,22.0,-100.00,NNW,336,1.0,2.0,59,0.00,,,0.16,,2013-03-13 08:54:00,
2013-03-13 05:02:00,34.0,21.0,-100.00,NNE,14,1.0,2.0,58,0.00,,,0.11,,2013-03-13 09:02:00,
2013-03-13 05:13:00,34.0,21.0,-100.00,NNE,14,1.0,2.0,58,0.00,,,0.11,,2013-03-13 09:13:00,
2013-03-13 05:23:00,34.0,21.0,-100.00,WSW,243,2.0,3.0,59,0.00,,,0.07,,2013-03-13 09:23:00,
2013-03-13 05:32:00,34.0,21.0,-100.00,West,261,2.0,3.0,60,0.00,,,0.04,,2013-03-13 09:32:00,
2013-03-13 05:42:00,34.0,21.0,-100.00,West,261,2.0,3.0,60,0.00,,,0.04,,2013-03-13 09:42:00,
2013-03-13 05:52:00,34.0,21.0,-100.00,WNW,298,3.0,4.0,59,0.00,,,0.02,,2013-03-13 09:52:00,
2013-03-13 06:02:00,34.0,21.0,-100.00,West,275,3.0,4.0,58,0.00,,,0.01,,2013-03-13 10:02:00,
2013-03-13 06:12:00,34.0,21.0,-100.00,West,275,3.0,4.0,58,0.00,,,0.01,,2013-03-13 10:12:00,
2013-03-13 06:22:00,34.0,21.0,-100.00,ESE,106,1.0,3.0,59,0.00,,,0.00,,2013-03-13 10:22:00,
2013-03-13 06:32:00,34.0,21.0,-100.00,ESE,106,1.0,3.0,59,0.00,,,0.00,,2013-03-13 10:32:00,
2013-03-13 06:42:00,34.0,21.0,-100.00,ESE,106,1.0,3.0,59,0.00,,,0.00,,2013-03-13 10:42:00,
2013-03-13 06:52:00,34.0,22.0,-100.00,NNW,343,1.0,2.0,62,0.00,,,0.00,,2013-03-13 10:52:00,
2013-03-13 07:02:00,34.0,22.0,-100.00,NNW,343,1.0,2.0,62,0.00,,,0.00,,2013-03-13 11:02:00,
2013-03-13 07:13:00,34.0,22.0,-100.00,NNW,343,1.0,2.0,62,0.00,,,0.00,,2013-03-13 11:13:00,
2013-03-13 07:23:00,34.0,23.0,-100.00,WSW,244,2.0,4.0,65,0.00,,,0.00,,2013-03-13 11:23:00,
2013-03-13 07:32:00,33.0,26.0,-100.00,West,267,7.0,11.0,75,0.00,,,0.00,,2013-03-13 11:32:00,
2013-03-13 07:42:00,33.0,26.0,-100.00,West,267,7.0,11.0,75,0.00,,,0.00,,2013-03-13 11:42:00,
2013-03-13 07:53:00,32.0,27.0,-100.00,SW,226,2.0,3.0,83,0.16,,,0.02,,2013-03-13 11:53:00,
2013-03-13 08:02:00,31.0,28.0,-100.00,SW,215,1.0,2.0,88,0.00,,,0.03,,2013-03-13 12:02:00,
2013-03-13 08:12:00,31.0,28.0,-100.00,SW,215,1.0,2.0,88,0.00,,,0.03,,2013-03-13 12:12:00,
2013-03-13 08:22:00,32.0,29.0,-100.00,East,79,2.0,3.0,88,0.00,,,0.03,,2013-03-13 12:22:00,
2013-03-13 08:32:00,31.0,28.0,-100.00,SSE,151,2.0,3.0,87,0.00,,,0.04,,2013-03-13 12:32:00,
2013-03-13 08:42:00,31.0,28.0,-100.00,SSE,151,2.0,3.0,87,0.00,,,0.04,,2013-03-13 12:42:00,
2013-03-13 08:53:00,31.0,28.0,-100.00,SSW,212,2.0,4.0,86,0.03,,,0.04,,2013-03-13 12:53:00,
2013-03-13 09:02:00,31.0,29.0,-100.00,South,186,2.0,3.0,92,0.00,,,0.04,,2013-03-13 13:02:00,
2013-03-13 09:12:00,31.0,29.0,-100.00,South,186,2.0,3.0,92,0.00,,,0.04,,2013-03-13 13:12:00,
2013-03-13 09:22:00,30.0,29.0,-100.00,WSW,241,3.0,4.0,95,0.00,,,0.04,,2013-03-13 13:22:00,
2013-03-13 09:33:00,30.0,30.0,-100.00,WSW,247,4.0,5.0,97,0.00,,,0.04,,2013-03-13 13:33:00,
2013-03-13 09:43:00,30.0,30.0,-100.00,WSW,247,4.0,5.0,97,0.00,,,0.04,,2013-03-13 13:43:00,
2013-03-13 09:53:00,31.0,30.0,-100.00,SW,222,3.0,5.0,97,0.00,,,0.04,,2013-03-13 13:53:00,
2013-03-13 10:02:00,31.0,30.0,-100.00,SW,227,4.0,7.0,97,0.00,,,0.04,,2013-03-13 14:02:00,
2013-03-13 10:12:00,31.0,30.0,-100.00,SW,227,4.0,7.0,97,0.00,,,0.04,,2013-03-13 14:12:00,
2013-03-13 10:22:00,30.0,30.0,-100.00,SW,227,3.0,5.0,98,0.23,,,0.07,,2013-03-13 14:22:00,
2013-03-13 10:33:00,30.0,30.0,-100.00,WSW,240,3.0,4.0,99,0.07,,,0.15,,2013-03-13 14:33:00,
2013-03-13 10:42:00,30.0,30.0,-100.00,WSW,240,3.0,4.0,99,0.07,,,0.15,,2013-03-13 14:42:00,
2013-03-13 10:53:00,31.0,30.0,-100.00,SW,232,3.0,5.0,99,0.00,,,0.15,,2013-03-13 14:53:00,
2013-03-13 11:03:00,32.0,31.0,-100.00,SSE,162,2.0,4.0,99,0.00,,,0.15,,2013-03-13 15:03:00,
2013-03-13 11:12:00,32.0,31.0,-100.00,SSE,162,2.0,4.0,99,0.00,,,0.15,,2013-03-13 15:12:00,
2013-03-13 11:22:00,31.0,31.0,-100.00,SW,226,2.0,5.0,99,0.00,,,0.15,,2013-03-13 15:22:00,
2013-03-13 11:32:00,31.0,30.0,-100.00,WSW,256,9.0,12.0,95,0.00,,,0.15,,2013-03-13 15:32:00,
2013-03-13 11:43:00,31.0,30.0,-100.00,WSW,256,9.0,12.0,95,0.00,,,0.15,,2013-03-13 15:43:00,
2013-03-13 11:53:00,32.0,27.0,-100.00,SSW,192,3.0,4.0,81,0.00,,,0.15,,2013-03-13 15:53:00,
2013-03-13 12:03:00,32.0,24.0,-100.00,South,188,7.0,12.0,73,0.00,,,0.15,,2013-03-13 16:03:00,
2013-03-13 12:12:00,32.0,24.0,-100.00,South,188,7.0,12.0,73,0.00,,,0.15,,2013-03-13 16:12:00,
2013-03-13 12:22:00,35.0,25.0,-100.00,SSW,212,3.0,6.0,66,0.00,,,0.15,,2013-03-13 16:22:00,
2013-03-13 12:32:00,33.0,23.0,-100.00,SSE,160,4.0,7.0,64,0.00,,,0.15,,2013-03-13 16:32:00,
2013-03-13 12:42:00,33.0,23.0,-100.00,SSE,160,4.0,7.0,64,0.00,,,0.15,,2013-03-13 16:42:00,
2013-03-13 12:52:00,33.0,22.0,-100.00,SSW,202,5.0,10.0,64,0.00,,,0.15,,2013-03-13 16:52:00,
2013-03-13 13:03:00,33.0,23.0,-100.00,SSW,212,5.0,9.0,66,0.00,,,0.15,,2013-03-13 17:03:00,
2013-03-13 13:12:00,33.0,23.0,-100.00,SSW,212,5.0,9.0,66,0.00,,,0.15,,2013-03-13 17:12:00,
2013-03-13 13:23:00,35.0,21.0,-100.00,South,186,5.0,9.0,57,0.00,,,0.15,,2013-03-13 17:23:00,
2013-03-13 13:33:00,33.0,20.0,-100.00,South,191,8.0,13.0,60,0.00,,,0.15,,2013-03-13 17:33:00,
2013-03-13 13:42:00,33.0,20.0,-100.00,South,191,8.0,13.0,60,0.00,,,0.15,,2013-03-13 17:42:00,
2013-03-13 13:53:00,34.0,22.0,-100.00,SSW,193,3.0,5.0,61,0.00,,,0.15,,2013-03-13 17:53:00,
2013-03-13 14:02:00,35.0,22.0,-100.00,South,176,5.0,8.0,58,0.00,,,0.15,,2013-03-13 18:02:00,
2013-03-13 14:13:00,35.0,22.0,-100.00,South,176,5.0,8.0,58,0.00,,,0.15,,2013-03-13 18:13:00,
2013-03-13 14:22:00,33.0,23.0,-100.00,WSW,253,6.0,9.0,64,0.00,,,0.15,,2013-03-13 18:22:00,
2013-03-13 14:33:00,34.0,22.0,-100.00,SSW,199,6.0,10.0,62,0.00,,,0.15,,2013-03-13 18:33:00,
2013-03-13 14:42:00,34.0,22.0,-100.00,SSW,199,6.0,10.0,62,0.00,,,0.15,,2013-03-13 18:42:00,
2013-03-13 14:52:00,34.0,21.0,-100.00,SW,223,4.0,8.0,60,0.00,,,0.15,,2013-03-13 18:52:00,
2013-03-13 15:03:00,33.0,21.0,-100.00,West,260,6.0,12.0,63,0.00,,,0.15,,2013-03-13 19:03:00,
2013-03-13 15:12:00,33.0,21.0,-100.00,West,260,6.0,12.0,63,0.00,,,0.15,,2013-03-13 19:12:00,
2013-03-13 15:22:00,34.0,21.0,-100.00,South,171,4.0,6.0,58,0.00,,,0.15,,2013-03-13 19:22:00,
2013-03-13 15:32:00,33.0,21.0,-100.00,SW,229,3.0,7.0,60,0.00,,,0.15,,2013-03-13 19:32:00,
2013-03-13 15:43:00,33.0,21.0,-100.00,SW,229,3.0,7.0,60,0.00,,,0.15,,2013-03-13 19:43:00,
2013-03-13 15:53:00,34.0,22.0,-100.00,SSW,195,5.0,10.0,62,0.00,,,0.15,,2013-03-13 19:53:00,
2013-03-13 16:02:00,33.0,20.0,-100.00,SSW,208,5.0,8.0,58,0.00,,,0.15,,2013-03-13 20:02:00,
2013-03-13 16:13:00,33.0,20.0,-100.00,SSW,208,5.0,8.0,58,0.00,,,0.15,,2013-03-13 20:13:00,
2013-03-13 16:22:00,33.0,21.0,-100.00,NNE,31,3.0,5.0,61,0.00,,,0.15,,2013-03-13 20:22:00,
2013-03-13 16:32:00,34.0,22.0,-100.00,South,186,4.0,6.0,63,0.00,,,0.15,,2013-03-13 20:32:00,
2013-03-13 16:42:00,34.0,22.0,-100.00,South,186,4.0,6.0,63,0.00,,,0.15,,2013-03-13 20:42:00,
2013-03-13 16:52:00,32.0,23.0,-100.00,SSW,195,2.0,7.0,70,0.00,,,0.15,,2013-03-13 20:52:00,
2013-03-13 17:02:00,32.0,23.0,-100.00,SSW,195,2.0,7.0,70,0.00,,,0.15,,2013-03-13 21:02:00,
2013-03-13 17:12:00,32.0,23.0,-100.00,SSW,195,2.0,7.0,70,0.00,,,0.15,,2013-03-13 21:12:00,
2013-03-13 17:22:00,32.0,23.0,-100.00,SSW,199,4.0,5.0,67,0.00,,,0.15,,2013-03-13 21:22:00,
2013-03-13 17:33:00,31.0,19.0,-100.00,SW,222,5.0,10.0,61,0.00,,,0.15,,2013-03-13 21:33:00,
2013-03-13 17:42:00,31.0,19.0,-100.00,SW,222,5.0,10.0,61,0.00,,,0.15,,2013-03-13 21:42:00,
2013-03-13 17:52:00,33.0,19.0,-100.00,SSW,196,2.0,5.0,56,0.00,,,0.15,,2013-03-13 21:52:00,
2013-03-13 18:02:00,32.0,18.0,-100.00,SW,232,4.0,6.0,57,0.00,,,0.15,,2013-03-13 22:02:00,
2013-03-13 18:12:00,32.0,18.0,-100.00,SW,232,4.0,6.0,57,0.00,,,0.15,,2013-03-13 22:12:00,
2013-03-13 18:22:00,32.0,18.0,-100.00,SSW,203,3.0,5.0,56,0.00,,,0.15,,2013-03-13 22:22:00,
2013-03-13 18:32:00,31.0,20.0,-100.00,SSW,200,6.0,10.0,62,0.00,,,0.15,,2013-03-13 22:32:00,
2013-03-13 18:42:00,31.0,20.0,-100.00,SSW,200,6.0,10.0,62,0.00,,,0.15,,2013-03-13 22:42:00,
2013-03-13 18:52:00,31.0,19.0,-100.00,SSW,195,2.0,6.0,61,0.00,,,0.15,,2013-03-13 22:52:00,
2013-03-13 19:02:00,31.0,18.0,-100.00,SSE,150,2.0,3.0,60,0.00,,,0.15,,2013-03-13 23:02:00,
2013-03-13 19:12:00,31.0,18.0,-100.00,SSE,150,2.0,3.0,60,0.00,,,0.15,,2013-03-13 23:12:00,
2013-03-13 19:22:00,31.0,18.0,-100.00,SSE,150,2.0,3.0,60,0.00,,,0.15,,2013-03-13 23:22:00,
2013-03-13 19:32:00,29.0,18.0,-100.00,South,175,2.0,4.0,63,0.00,,,0.15,,2013-03-13 23:32:00,
2013-03-13 19:43:00,29.0,18.0,-100.00,South,175,2.0,4.0,63,0.00,,,0.15,,2013-03-13 23:43:00,
2013-03-13 19:52:00,29.0,18.0,-100.00,SW,229,2.0,3.0,63,0.00,,,0.15,,2013-03-13 23:52:00,
2013-03-13 20:02:00,29.0,18.0,-100.00,SW,229,2.0,3.0,63,0.00,,,0.15,,2013-03-14 00:02:00,
2013-03-13 20:13:00,29.0,18.0,-100.00,SW,229,2.0,3.0,63,0.00,,,0.15,,2013-03-14 00:13:00,
2013-03-13 20:22:00,29.0,15.0,-100.00,West,271,1.0,4.0,56,0.00,,,0.15,,2013-03-14 00:22:00,
2013-03-13 20:32:00,28.0,15.0,-100.00,ESE,119,3.0,5.0,57,0.00,,,0.15,,2013-03-14 00:32:00,
2013-03-13 20:42:00,28.0,15.0,-100.00,ESE,119,3.0,5.0,57,0.00,,,0.15,,2013-03-14 00:42:00,
2013-03-13 20:52:00,28.0,15.0,-100.00,ESE,119,3.0,5.0,57,0.00,,,0.15,,2013-03-14 00:52:00,
2013-03-13 21:02:00,28.0,16.0,-100.00,East,88,1.0,2.0,61,0.00,,,0.15,,2013-03-14 01:02:00,
2013-03-13 21:12:00,28.0,16.0,-100.00,East,88,1.0,2.0,61,0.00,,,0.15,,2013-03-14 01:12:00,
2013-03-13 21:23:00,28.0,16.0,-100.00,ESE,119,2.0,4.0,62,0.00,,,0.15,,2013-03-14 01:23:00,
2013-03-13 21:32:00,27.0,17.0,-100.00,SSE,168,2.0,3.0,63,0.00,,,0.15,,2013-03-14 01:32:00,
2013-03-13 21:42:00,27.0,17.0,-100.00,SSE,168,2.0,3.0,63,0.00,,,0.15,,2013-03-14 01:42:00,
2013-03-13 21:53:00,27.0,16.0,-100.00,SE,131,2.0,3.0,61,0.00,,,0.15,,2013-03-14 01:53:00,
2013-03-13 22:02:00,27.0,15.0,-100.00,SE,141,1.0,2.0,61,0.00,,,0.15,,2013-03-14 02:02:00,
2013-03-13 22:12:00,27.0,15.0,-100.00,SE,141,1.0,2.0,61,0.00,,,0.15,,2013-03-14 02:12:00,
2013-03-13 22:22:00,27.0,16.0,-100.00,SSE,162,2.0,3.0,63,0.00,,,0.15,,2013-03-14 02:22:00,
2013-03-13 22:32:00,27.0,16.0,-100.00,SE,144,2.0,4.0,64,0.00,,,0.15,,2013-03-14 02:32:00,
2013-03-13 22:42:00,27.0,16.0,-100.00,SE,144,2.0,4.0,64,0.00,,,0.15,,2013-03-14 02:42:00,
2013-03-13 22:52:00,27.0,16.0,-100.00,SE,144,2.0,4.0,64,0.00,,,0.15,,2013-03-14 02:52:00,
2013-03-13 23:02:00,26.0,17.0,-100.00,SE,138,4.0,6.0,69,0.00,,,0.15,,2013-03-14 03:02:00,
2013-03-13 23:12:00,26.0,17.0,-100.00,SE,138,4.0,6.0,69,0.00,,,0.15,,2013-03-14 03:12:00,
2013-03-13 23:23:00,26.0,18.0,-100.00,SE,138,3.0,5.0,70,0.00,,,0.15,,2013-03-14 03:23:00,
2013-03-13 23:32:00,26.0,16.0,-100.00,SE,141,1.0,4.0,66,0.00,,,0.15,,2013-03-14 03:32:00,
2013-03-13 23:42:00,26.0,16.0,-100.00,SE,141,1.0,4.0,66,0.00,,,0.15,,2013-03-14 03:42:00,
2013-03-13 23:53:00,26.0,15.0,-100.00,SSW,202,4.0,6.0,62,0.00,,,0.15,,2013-03-14 03:53:00,